West Point, VA

4:29 AM EST on November 18, 2017 (GMT -0500)
West Point

Weather History for KFYJ - April, 2013

Change the Weather History Date:

Tuesday, April 2, 2013

  Actual Average (KJGG) Record (KJGG)
Temperature  
Mean Temperature 42 °F -  
Max Temperature 55 °F 70 °F 89 °F (1967)
Min Temperature 30 °F 42 °F 25 °F (1964)
Degree Days  
Heating Degree Days 22    
Moisture  
Dew Point 27 °F    
Average Humidity 57    
Maximum Humidity 96    
Minimum Humidity 24    
Precipitation  
Precipitation 0.00 in - - ()
Sea Level Pressure  
Sea Level Pressure 30.10 in    
Wind  
Wind Speed 3 mph (WNW)    
Max Wind Speed 15 mph    
Max Gust Speed 24 mph    
Visibility 10 miles    
Events      
Averages and records for this station are not official NWS values.
T = Trace of Precipitation, MM = Missing Value Source: NWS Daily Summary

Daily Weather History Graph

Daily Weather History Graph

Search for Another Location

Airport or City:

Trip Planner

Search our weather history database for the weather conditions in past years. The results will help you decide how hot, cold, wet, or windy it might be!

Date:

Astronomy

Apr. 02, 2013 Rise Set
Actual Time 6:50 AM EDT 7:30 PM EDT
Civil Twilight 6:24 AM EDT 7:57 PM EDT
Nautical Twilight 5:53 AM EDT 8:28 PM EDT
Astronomical Twilight 5:21 AM EDT 9:00 PM EDT
Moon 1:28 AM EDT (4/2) 11:44 AM EDT (4/2)
Length of Visible Light 13h 33m
Length of Day
12h 40m
Waning Gibbous, 56% of the Moon is Illuminated
Apr 2
Waning Gibbous
Apr 3
Last Quarter
Apr 10
New
Apr 18
First Quarter
Apr 25
Full

Hourly Weather History & Observations

Time (EDT) Temp. Windchill Dew Point Humidity Pressure Visibility Wind Dir Wind Speed Gust Speed Precip Events Conditions
12:15 AM 45.5 °F - 32.4 °F 60% 30.00 in 10.0 mi Calm Calm - N/A   Clear
12:35 AM 44.1 °F - 33.6 °F 67% 30.02 in 10.0 mi Calm Calm - N/A   Clear
12:55 AM 40.3 °F - 32.5 °F 74% 30.03 in 10.0 mi Calm Calm - N/A   Scattered Clouds
1:15 AM 40.1 °F - 35.4 °F 83% 30.03 in 10.0 mi Calm Calm - N/A   Scattered Clouds
1:35 AM 40.8 °F - 34.0 °F 77% 30.03 in 10.0 mi Calm Calm - N/A   Scattered Clouds
1:55 AM 36.0 °F - 32.0 °F 86% 30.04 in 10.0 mi Calm Calm - N/A   Clear
2:15 AM 37.2 °F - 32.4 °F 83% 30.03 in 10.0 mi Calm Calm - N/A   Clear
2:35 AM 37.4 °F 34.9 °F 33.4 °F 86% 30.03 in 10.0 mi NNW 3.5 mph - N/A   Scattered Clouds
2:55 AM 38.1 °F - 32.7 °F 81% 30.03 in 10.0 mi Calm Calm - N/A   Scattered Clouds
3:15 AM 35.1 °F - 32.0 °F 89% 30.05 in 10.0 mi Calm Calm - N/A   Clear
3:35 AM 36.9 °F - 32.0 °F 83% 30.04 in 10.0 mi Calm Calm - N/A   Clear
3:55 AM 37.9 °F - 31.8 °F 79% 30.05 in 10.0 mi Calm Calm - N/A   Clear
4:15 AM 34.5 °F - 30.9 °F 87% 30.05 in 10.0 mi Calm Calm - N/A   Clear
4:35 AM 32.0 °F - 28.8 °F 88% 30.06 in 10.0 mi Calm Calm - N/A   Scattered Clouds
4:55 AM 33.8 °F - 30.6 °F 88% 30.07 in 10.0 mi Calm Calm - N/A   Scattered Clouds
5:15 AM 32.2 °F - 30.0 °F 92% 30.08 in 10.0 mi Calm Calm - N/A   Clear
5:35 AM 32.0 °F - 30.2 °F 93% 30.08 in 10.0 mi Calm Calm - N/A   Clear
5:55 AM 30.2 °F - 28.9 °F 95% 30.08 in 10.0 mi Calm Calm - N/A   Clear
6:15 AM 30.7 °F - 29.3 °F 94% 30.09 in 10.0 mi Calm Calm - N/A   Clear
6:35 AM 30.9 °F - 29.5 °F 94% 30.11 in 10.0 mi Calm Calm - N/A   Clear
6:55 AM 30.4 °F - 28.9 °F 94% 30.11 in 10.0 mi Calm Calm - N/A   Clear
7:15 AM 30.7 °F - 29.3 °F 94% 30.13 in 10.0 mi Calm Calm - N/A   Clear
7:35 AM 31.1 °F - 29.8 °F 95% 30.14 in 10.0 mi Calm Calm - N/A   Clear
7:55 AM 32.9 °F - 32.0 °F 96% 30.15 in 10.0 mi Calm Calm - N/A   Clear
8:15 AM 36.1 °F - 34.7 °F 94% 30.15 in 10.0 mi Calm Calm - N/A   Clear
8:35 AM 40.6 °F - 37.6 °F 89% 30.16 in 10.0 mi Calm Calm - N/A   Clear
8:55 AM 43.7 °F - 31.5 °F 62% 30.16 in 10.0 mi Calm Calm - N/A   Clear
9:15 AM 45.1 °F 43.7 °F 27.0 °F 49% 30.16 in 10.0 mi South 3.5 mph - N/A   Clear
9:35 AM 45.7 °F 42.7 °F 23.4 °F 41% 30.15 in 10.0 mi SW 5.8 mph - N/A   Clear
9:55 AM 47.1 °F - 24.4 °F 41% 30.15 in 10.0 mi WSW 9.2 mph - N/A   Clear
10:35 AM 48.7 °F - 23.7 °F 38% 30.15 in 10.0 mi WNW 10.4 mph - N/A   Clear
10:55 AM 49.5 °F - 24.6 °F 38% 30.14 in 10.0 mi WNW 10.4 mph - N/A   Clear
11:15 AM 49.6 °F - 23.0 °F 35% 30.14 in 10.0 mi West 9.2 mph 17.3 mph N/A   Clear
11:35 AM 50.5 °F - 22.1 °F 33% 30.14 in 10.0 mi WNW 11.5 mph 17.3 mph N/A   Clear
11:55 AM 51.1 °F - 22.1 °F 32% 30.13 in 10.0 mi West 8.1 mph 16.1 mph N/A   Clear
12:15 PM 52.5 °F - 23.2 °F 32% 30.13 in 10.0 mi WNW 12.7 mph 19.6 mph N/A   Clear
12:35 PM 52.9 °F - 22.3 °F 30% 30.12 in 10.0 mi West 12.7 mph 18.4 mph N/A   Clear
12:55 PM 53.1 °F - 21.7 °F 29% 30.11 in 10.0 mi West 11.5 mph 19.6 mph N/A   Clear
1:15 PM 53.4 °F - 20.8 °F 28% 30.11 in 10.0 mi West 11.5 mph 17.3 mph N/A   Clear
1:35 PM 53.6 °F - 19.4 °F 26% 30.10 in 10.0 mi NW 11.5 mph 21.9 mph N/A   Clear
1:55 PM 54.0 °F - 20.7 °F 27% 30.10 in 10.0 mi WNW 11.5 mph 24.2 mph N/A   Clear
2:15 PM 54.1 °F - 20.8 °F 27% 30.09 in 10.0 mi West 12.7 mph 21.9 mph N/A   Clear
2:35 PM 55.4 °F - 21.7 °F 27% 30.08 in 10.0 mi WNW 15.0 mph 20.7 mph N/A   Clear
2:55 PM 55.4 °F - 22.1 °F 27% 30.08 in 10.0 mi WNW 10.4 mph - N/A   Clear
3:15 PM 55.4 °F - 19.8 °F 25% 30.07 in 10.0 mi NW 10.4 mph 17.3 mph N/A   Clear
3:35 PM 55.2 °F - 21.9 °F 27% 30.07 in 10.0 mi WNW 15.0 mph 20.7 mph N/A   Clear
3:55 PM 55.4 °F - 22.1 °F 27% 30.07 in 10.0 mi West 11.5 mph 18.4 mph N/A   Clear
4:15 PM 54.7 °F - 20.3 °F 26% 30.06 in 10.0 mi WNW 8.1 mph 19.6 mph N/A   Clear
4:35 PM 54.9 °F - 22.1 °F 28% 30.06 in 10.0 mi WNW 8.1 mph 16.1 mph N/A   Clear
4:55 PM 55.4 °F - 20.8 °F 26% 30.06 in 10.0 mi West 12.7 mph 21.9 mph N/A   Clear
5:15 PM 55.4 °F - 19.2 °F 24% 30.07 in 10.0 mi WNW 10.4 mph - N/A   Clear
5:35 PM 55.0 °F - 19.6 °F 25% 30.07 in 10.0 mi West 6.9 mph - N/A   Clear
5:55 PM 54.9 °F - 21.9 °F 28% 30.08 in 10.0 mi WNW 6.9 mph - N/A   Clear
6:15 PM 54.5 °F - 19.2 °F 25% 30.08 in 10.0 mi West 5.8 mph - N/A   Clear
6:35 PM 54.1 °F - 19.6 °F 26% 30.09 in 10.0 mi WNW 6.9 mph - N/A   Clear
6:55 PM 53.4 °F - 20.7 °F 28% 30.09 in 10.0 mi West 8.1 mph - N/A   Clear
7:15 PM 52.3 °F - 19.6 °F 28% 30.09 in 10.0 mi West 8.1 mph 16.1 mph N/A   Clear
7:35 PM 50.9 °F - 19.6 °F 29% 30.10 in 10.0 mi WNW 4.6 mph - N/A   Clear
7:55 PM 50.4 °F - 21.7 °F 33% 30.11 in 10.0 mi Calm Calm - N/A   Clear
8:15 PM 43.0 °F - 26.2 °F 52% 30.11 in 10.0 mi Calm Calm - N/A   Clear
8:35 PM 44.1 °F - 25.7 °F 49% 30.12 in 10.0 mi Calm Calm - N/A   Clear
8:55 PM 42.3 °F - 25.9 °F 52% 30.13 in 10.0 mi Calm Calm - N/A   Clear
9:15 PM 38.8 °F 35.4 °F 25.9 °F 60% 30.14 in 10.0 mi East 4.6 mph - N/A   Clear
9:35 PM 40.1 °F 36.9 °F 27.5 °F 61% 30.15 in 10.0 mi ENE 4.6 mph - N/A   Clear
9:55 PM 40.5 °F - 30.0 °F 66% 30.15 in 10.0 mi Calm Calm - N/A   Clear
10:15 PM 40.1 °F 36.9 °F 30.9 °F 70% 30.16 in 10.0 mi North 4.6 mph - N/A   Clear
10:35 PM 39.6 °F 35.4 °F 31.3 °F 72% 30.17 in 10.0 mi NNW 5.8 mph - N/A   Clear
10:55 PM 39.0 °F 36.8 °F 30.9 °F 73% 30.19 in 10.0 mi NNE 3.5 mph - N/A   Clear
11:15 PM 39.6 °F 37.4 °F 31.3 °F 72% 30.19 in 10.0 mi NNE 3.5 mph - N/A   Clear
11:35 PM 38.7 °F 35.2 °F 32.0 °F 77% 30.19 in 10.0 mi North 4.6 mph - N/A   Clear
11:55 PM 38.8 °F 35.4 °F 31.6 °F 75% 30.19 in 10.0 mi NNE 4.6 mph - N/A   Clear